Terug naar catalogus

DELTA 1 DEB

ActiefPO
NORAD 14460·DEBRIS·🇺🇸 United States

Gelanceerd Mar 5, 1978 vanaf Vandenberg Space Force Base

Loading…

Volgende Passages (komende 24 uur)

TLE

VersSource: Space-Track

Epoch: Sep 14, 2026, 13:48 UTC

1 14460U 78026GA  26257.57512911  .00000226  00000-0  29346-3 0  9998
2 14460  98.8290 168.3410 0253773 184.2780 300.6892 13.58558913150218

Volg DELTA 1 DEB in realtime met AllMySat

Download on the App Store